Bigfork, MN

11:05 AM CDT on July 23, 2017 (GMT -0500)
Bigfork Municipal

Weather History for KFOZ - December, 2012

Change the Weather History Date:

Thursday, December 27, 2012

  Actual Average (KGPZ) Record (KGPZ)
Temperature  
Mean Temperature 2 °F -  
Max Temperature 17 °F 18 °F 39 °F (1937)
Min Temperature -13 °F -2 °F -34 °F (1993)
Degree Days  
Heating Degree Days 63    
Moisture  
Dew Point -3 °F    
Average Humidity 80    
Maximum Humidity 92    
Minimum Humidity 70    
Precipitation  
Precipitation 0.00 in - - ()
Sea Level Pressure  
Sea Level Pressure 30.19 in    
Wind  
Wind Speed 0 mph (North)    
Max Wind Speed 0 mph    
Max Gust Speed -    
Visibility 10 miles    
Events Snow    
Averages and records for this station are not official NWS values.
T = Trace of Precipitation, MM = Missing Value Source: NWS Daily Summary

Daily Weather History Graph

Daily Weather History Graph

Search for Another Location

Airport or City:

Trip Planner

Search our weather history database for the weather conditions in past years. The results will help you decide how hot, cold, wet, or windy it might be!

Date:

Astronomy

Dec. 27, 2012 Rise Set
Actual Time 8:03 AM CST 4:28 PM CST
Civil Twilight 7:26 AM CST 5:05 PM CST
Nautical Twilight 6:47 AM CST 5:44 PM CST
Astronomical Twilight 6:09 AM CST 6:22 PM CST
Moon 4:15 PM CST (12/27) 7:12 AM CST (12/27)
Length of Visible Light 9h 38m
Length of Day
8h 25m
Full, 100% of the Moon is Illuminated
Dec 27
Full
Dec 28
Full
Jan 4
Last Quarter
Jan 11
New
Jan 18
First Quarter

Hourly Weather History & Observations

Time (CST) Temp. Dew Point Humidity Pressure Visibility Wind Dir Wind Speed Gust Speed Precip Events Conditions
12:13 AM -11.2 °F -16.6 °F 77% 30.24 in 10.0 mi Calm Calm - N/A   Clear
12:33 AM -11.2 °F -16.6 °F 77% 30.23 in 10.0 mi Calm Calm - N/A   Clear
12:53 AM -11.2 °F -16.6 °F 77% 30.23 in 10.0 mi Calm Calm - N/A   Clear
1:13 AM -11.2 °F -16.6 °F 77% 30.23 in 10.0 mi Calm Calm - N/A   Clear
1:33 AM -11.2 °F -16.6 °F 77% 30.23 in 10.0 mi Calm Calm - N/A   Clear
1:53 AM -11.2 °F -16.6 °F 77% 30.23 in 10.0 mi Calm Calm - N/A   Clear
2:13 AM -11.2 °F -16.6 °F 77% 30.24 in 10.0 mi Calm Calm - N/A   Clear
2:33 AM -11.2 °F -18.4 °F 70% 30.25 in 10.0 mi Calm Calm - N/A   Clear
2:53 AM -11.2 °F -16.6 °F 77% 30.24 in 10.0 mi Calm Calm - N/A   Clear
3:13 AM -11.2 °F -18.4 °F 70% 30.24 in 10.0 mi Calm Calm - N/A   Clear
3:33 AM -13.0 °F -18.4 °F 77% 30.24 in 10.0 mi Calm Calm - N/A   Clear
3:53 AM -13.0 °F -18.4 °F 77% 30.24 in 10.0 mi Calm Calm - N/A   Clear
4:33 AM -13.0 °F -18.4 °F 77% 30.24 in 10.0 mi Calm Calm - N/A   Clear
4:53 AM -13.0 °F -18.4 °F 77% 30.23 in 10.0 mi Calm Calm - N/A   Clear
5:13 AM -11.2 °F -18.4 °F 70% 30.23 in 10.0 mi Calm Calm - N/A   Clear
5:33 AM -11.2 °F -18.4 °F 70% 30.23 in 10.0 mi Calm Calm - N/A   Clear
5:53 AM -11.2 °F -16.6 °F 77% 30.22 in 10.0 mi Calm Calm - N/A   Scattered Clouds
6:13 AM -11.2 °F -16.6 °F 77% 30.22 in 10.0 mi Calm Calm - N/A   Mostly Cloudy
6:33 AM -11.2 °F -16.6 °F 77% 30.22 in 10.0 mi Calm Calm - N/A   Overcast
6:53 AM -9.4 °F -14.8 °F 77% 30.22 in 10.0 mi Calm Calm - N/A   Overcast
7:33 AM -5.8 °F -11.2 °F 77% 30.22 in 10.0 mi Calm Calm - N/A   Overcast
7:53 AM -4.0 °F -9.4 °F 78% 30.23 in 10.0 mi Calm Calm - N/A   Overcast
8:13 AM -4.0 °F -9.4 °F 78% 30.23 in 10.0 mi Calm Calm - N/A   Overcast
8:53 AM -2.2 °F -7.6 °F 78% 30.23 in 10.0 mi Calm Calm - N/A   Overcast
9:13 AM -0.4 °F -5.8 °F 78% 30.23 in 10.0 mi Calm Calm - N/A   Overcast
9:33 AM -0.4 °F -5.8 °F 78% 30.23 in 10.0 mi Calm Calm - N/A   Overcast
9:53 AM 1.4 °F -2.2 °F 85% 30.23 in 10.0 mi Calm Calm - N/A   Scattered Clouds
10:13 AM 3.2 °F -0.4 °F 85% 30.23 in 10.0 mi Calm Calm - N/A   Scattered Clouds
10:33 AM 3.2 °F -0.4 °F 85% 30.23 in 10.0 mi Calm Calm - N/A   Overcast
10:53 AM 5.0 °F -0.4 °F 78% 30.22 in 10.0 mi Calm Calm - N/A Snow Light Snow
11:13 AM 6.8 °F 1.4 °F 79% 30.22 in 10.0 mi Calm Calm - N/A   Mostly Cloudy
11:33 AM 6.8 °F 3.2 °F 85% 30.21 in 10.0 mi Calm Calm - N/A   Mostly Cloudy
11:53 AM 8.6 °F 3.2 °F 79% 30.21 in 10.0 mi Calm Calm - N/A   Mostly Cloudy
12:13 PM 8.6 °F 3.2 °F 79% 30.20 in 10.0 mi Calm Calm - N/A   Mostly Cloudy
12:33 PM 10.4 °F 5.0 °F 79% 30.19 in 10.0 mi Calm Calm - N/A   Mostly Cloudy
12:53 PM 10.4 °F 6.8 °F 85% 30.18 in 10.0 mi Calm Calm - N/A   Mostly Cloudy
1:13 PM 12.2 °F 6.8 °F 79% 30.17 in 10.0 mi Calm Calm - N/A   Mostly Cloudy
1:33 PM 12.2 °F 8.6 °F 85% 30.17 in 10.0 mi Calm Calm - N/A   Overcast
1:53 PM 14.0 °F 8.6 °F 79% 30.17 in 10.0 mi Calm Calm - N/A   Overcast
2:13 PM 15.8 °F 8.6 °F 73% 30.17 in 10.0 mi Calm Calm - N/A   Overcast
2:33 PM 15.8 °F 8.6 °F 73% 30.17 in 10.0 mi Calm Calm - N/A   Mostly Cloudy
2:53 PM 15.8 °F 10.4 °F 79% 30.17 in 10.0 mi Calm Calm - N/A   Mostly Cloudy
3:13 PM 15.8 °F 10.4 °F 79% 30.17 in 10.0 mi Calm Calm - N/A   Overcast
3:33 PM 17.6 °F 10.4 °F 73% 30.17 in 10.0 mi Calm Calm - N/A   Overcast
3:53 PM 15.8 °F 10.4 °F 79% 30.17 in 10.0 mi Calm Calm - N/A   Overcast
4:13 PM 15.8 °F 10.4 °F 79% 30.18 in 10.0 mi Calm Calm - N/A   Scattered Clouds
4:33 PM 14.0 °F 10.4 °F 86% 30.18 in 10.0 mi Calm Calm - N/A   Clear
4:53 PM 12.2 °F 10.4 °F 92% 30.17 in 10.0 mi Calm Calm - N/A   Scattered Clouds
5:13 PM 12.2 °F 10.4 °F 92% 30.17 in 10.0 mi Calm Calm - N/A   Scattered Clouds
5:33 PM 12.2 °F 8.6 °F 85% 30.17 in 10.0 mi Calm Calm - N/A   Clear
5:53 PM 10.4 °F 8.6 °F 92% 30.17 in 10.0 mi Calm Calm - N/A   Clear
6:13 PM 10.4 °F 6.8 °F 85% 30.16 in 10.0 mi Calm Calm - N/A   Mostly Cloudy
6:33 PM 10.4 °F 6.8 °F 85% 30.16 in 10.0 mi Calm Calm - N/A   Overcast
6:53 PM 8.6 °F 6.8 °F 92% 30.16 in 10.0 mi Calm Calm - N/A   Overcast
7:13 PM 8.6 °F 5.0 °F 85% 30.16 in 10.0 mi Calm Calm - N/A   Scattered Clouds
7:33 PM 8.6 °F 3.2 °F 79% 30.16 in 10.0 mi Calm Calm - N/A   Clear
7:53 PM 6.8 °F 3.2 °F 85% 30.16 in 10.0 mi Calm Calm - N/A   Clear
8:13 PM 6.8 °F 3.2 °F 85% 30.16 in 10.0 mi Calm Calm - N/A   Clear
8:33 PM 6.8 °F 3.2 °F 85% 30.15 in 10.0 mi Calm Calm - N/A   Mostly Cloudy
8:53 PM 8.6 °F 3.2 °F 79% 30.15 in 10.0 mi Calm Calm - N/A   Overcast
9:13 PM 8.6 °F 3.2 °F 79% 30.15 in 10.0 mi Calm Calm - N/A   Mostly Cloudy
9:33 PM 6.8 °F 3.2 °F 85% 30.14 in 10.0 mi Calm Calm - N/A   Overcast
9:53 PM 6.8 °F 3.2 °F 85% 30.14 in 10.0 mi Calm Calm - N/A   Scattered Clouds
10:13 PM 5.0 °F 1.4 °F 85% 30.14 in 10.0 mi Calm Calm - N/A   Clear
10:33 PM 5.0 °F 1.4 °F 85% 30.14 in 10.0 mi Calm Calm - N/A   Clear
10:53 PM 3.2 °F 1.4 °F 92% 30.14 in 10.0 mi Calm Calm - N/A   Clear
11:13 PM 3.2 °F -0.4 °F 85% 30.14 in 10.0 mi Calm Calm - N/A   Clear
11:33 PM 3.2 °F -0.4 °F 85% 30.13 in 10.0 mi Calm Calm - N/A   Clear
11:53 PM 3.2 °F -0.4 °F 85% 30.13 in 10.0 mi Calm Calm - N/A   Clear